TimeEDT,TemperatureF,Dew PointF,Humidity,Sea Level PressureIn,VisibilityMPH,Wind Direction,Wind SpeedMPH,Gust SpeedMPH,PrecipitationIn,Events,Conditions,WindDirDegrees,DateUTC
12:15 AM,48.2,33.8,58,30.36,10.0,SSE,9.2,-,N/A,,Overcast,160,2013-04-22 04:15:00
12:35 AM,46.4,33.8,62,30.36,10.0,SSE,8.1,-,N/A,,Mostly Cloudy,160,2013-04-22 04:35:00
12:55 AM,46.4,33.8,62,30.35,10.0,SSE,6.9,-,N/A,,Scattered Clouds,160,2013-04-22 04:55:00
1:15 AM,46.4,33.8,62,30.35,10.0,SSE,6.9,-,N/A,,Clear,160,2013-04-22 05:15:00
1:35 AM,46.4,33.8,62,30.35,10.0,SSE,6.9,-,N/A,,Clear,160,2013-04-22 05:35:00
1:55 AM,44.6,33.8,66,30.35,10.0,SSE,6.9,-,N/A,,Clear,160,2013-04-22 05:55:00
2:15 AM,44.6,33.8,66,30.34,10.0,SSE,5.8,-,N/A,,Clear,160,2013-04-22 06:15:00
2:35 AM,44.6,33.8,66,30.33,10.0,SSE,5.8,-,N/A,,Clear,150,2013-04-22 06:35:00
2:55 AM,44.6,33.8,66,30.33,10.0,SSE,4.6,-,N/A,,Clear,160,2013-04-22 06:55:00
3:15 AM,44.6,33.8,66,30.33,10.0,SSE,5.8,-,N/A,,Clear,160,2013-04-22 07:15:00
3:35 AM,44.6,33.8,66,30.33,10.0,South,5.8,-,N/A,,Clear,170,2013-04-22 07:35:00
3:55 AM,44.6,33.8,66,30.33,10.0,SSE,8.1,-,N/A,,Clear,150,2013-04-22 07:55:00
4:15 AM,42.8,33.8,70,30.33,10.0,SSE,8.1,-,N/A,,Clear,160,2013-04-22 08:15:00
4:35 AM,42.8,33.8,70,30.32,10.0,SSE,8.1,-,N/A,,Clear,160,2013-04-22 08:35:00
4:55 AM,42.8,33.8,70,30.32,10.0,SSE,6.9,-,N/A,,Clear,160,2013-04-22 08:55:00
5:15 AM,42.8,33.8,70,30.33,10.0,SSE,10.4,-,N/A,,Clear,160,2013-04-22 09:15:00
5:35 AM,42.8,33.8,70,30.32,10.0,SSE,8.1,-,N/A,,Clear,160,2013-04-22 09:35:00
5:55 AM,42.8,33.8,70,30.33,10.0,SSE,8.1,-,N/A,,Clear,160,2013-04-22 09:55:00
6:15 AM,42.8,33.8,70,30.33,10.0,SSE,8.1,-,N/A,,Clear,160,2013-04-22 10:15:00
6:35 AM,42.8,33.8,70,30.33,10.0,SSE,8.1,-,N/A,,Clear,160,2013-04-22 10:35:00
6:55 AM,42.8,33.8,70,30.34,10.0,SSE,6.9,-,N/A,,Clear,160,2013-04-22 10:55:00
7:15 AM,42.8,33.8,70,30.35,10.0,SSE,8.1,-,N/A,,Clear,160,2013-04-22 11:15:00
7:35 AM,42.8,33.8,70,30.35,10.0,SSE,5.8,-,N/A,,Clear,160,2013-04-22 11:35:00
7:55 AM,42.8,33.8,70,30.36,10.0,SSE,8.1,-,N/A,,Clear,160,2013-04-22 11:55:00
8:15 AM,44.6,35.6,71,30.36,10.0,South,8.1,-,N/A,,Clear,170,2013-04-22 12:15:00
8:35 AM,44.6,35.6,71,30.36,10.0,South,8.1,-,N/A,,Clear,170,2013-04-22 12:35:00
8:55 AM,46.4,35.6,66,30.37,10.0,SSE,11.5,-,N/A,,Clear,160,2013-04-22 12:55:00
9:15 AM,46.4,35.6,66,30.37,10.0,SSE,8.1,-,N/A,,Clear,160,2013-04-22 13:15:00
9:35 AM,48.2,35.6,62,30.37,10.0,South,9.2,-,N/A,,Clear,170,2013-04-22 13:35:00
9:55 AM,50.0,35.6,58,30.36,10.0,South,8.1,-,N/A,,Clear,180,2013-04-22 13:55:00
10:15 AM,50.0,35.6,58,30.37,10.0,SSE,4.6,-,N/A,,Clear,160,2013-04-22 14:15:00
10:35 AM,51.8,37.4,58,30.36,10.0,South,4.6,-,N/A,,Clear,180,2013-04-22 14:35:00
10:55 AM,53.6,37.4,54,30.36,10.0,East,6.9,-,N/A,,Clear,90,2013-04-22 14:55:00
11:15 AM,53.6,37.4,54,30.35,10.0,East,4.6,-,N/A,,Clear,100,2013-04-22 15:15:00
11:35 AM,55.4,37.4,51,30.35,10.0,Calm,Calm,-,N/A,,Clear,0,2013-04-22 15:35:00
11:55 AM,57.2,37.4,48,30.34,10.0,NW,4.6,-,N/A,,Clear,320,2013-04-22 15:55:00
12:15 PM,57.2,37.4,48,30.33,10.0,ENE,4.6,-,N/A,,Clear,60,2013-04-22 16:15:00
12:35 PM,59.0,37.4,45,30.32,10.0,North,4.6,-,N/A,,Clear,10,2013-04-22 16:35:00
12:55 PM,59.0,37.4,45,30.31,10.0,NNW,8.1,-,N/A,,Clear,330,2013-04-22 16:55:00
1:15 PM,60.8,37.4,42,30.30,10.0,North,5.8,-,N/A,,Scattered Clouds,360,2013-04-22 17:15:00
1:35 PM,60.8,37.4,42,30.29,10.0,Calm,Calm,-,N/A,,Scattered Clouds,0,2013-04-22 17:35:00
1:55 PM,59.0,35.6,42,30.29,10.0,Calm,Calm,-,N/A,,Scattered Clouds,0,2013-04-22 17:55:00
2:15 PM,62.6,37.4,39,30.28,10.0,NW,3.5,-,N/A,,Scattered Clouds,310,2013-04-22 18:15:00
2:35 PM,60.8,35.6,39,30.27,10.0,North,9.2,-,N/A,,Mostly Cloudy,350,2013-04-22 18:35:00
2:55 PM,62.6,37.4,39,30.26,10.0,South,5.8,-,N/A,,Scattered Clouds,190,2013-04-22 18:55:00
3:15 PM,64.4,37.4,37,30.26,10.0,NE,3.5,-,N/A,,Scattered Clouds,40,2013-04-22 19:15:00
3:35 PM,64.4,39.2,40,30.25,10.0,Calm,Calm,-,N/A,,Scattered Clouds,0,2013-04-22 19:35:00
3:55 PM,66.2,41.0,40,30.24,10.0,NE,10.4,-,N/A,,Mostly Cloudy,40,2013-04-22 19:55:00
4:15 PM,62.6,35.6,37,30.23,10.0,ENE,4.6,-,N/A,,Overcast,60,2013-04-22 20:15:00
4:35 PM,64.4,37.4,37,30.23,10.0,Calm,Calm,-,N/A,,Scattered Clouds,0,2013-04-22 20:35:00
4:55 PM,62.6,37.4,39,30.22,10.0,SSE,4.6,-,N/A,,Clear,160,2013-04-22 20:55:00
5:15 PM,64.4,37.4,37,30.22,10.0,ENE,5.8,-,N/A,,Clear,70,2013-04-22 21:15:00
5:35 PM,64.4,35.6,34,30.22,10.0,East,5.8,-,N/A,,Scattered Clouds,90,2013-04-22 21:35:00
5:55 PM,64.4,35.6,34,30.21,10.0,ESE,4.6,-,N/A,,Clear,110,2013-04-22 21:55:00
6:15 PM,64.4,35.6,34,30.21,10.0,SE,4.6,-,N/A,,Clear,130,2013-04-22 22:15:00
6:35 PM,62.6,33.8,34,30.21,10.0,SSE,3.5,-,N/A,,Clear,150,2013-04-22 22:35:00
6:55 PM,62.6,33.8,34,30.21,10.0,Calm,Calm,-,N/A,,Clear,0,2013-04-22 22:55:00
7:15 PM,62.6,33.8,34,30.21,10.0,Calm,Calm,-,N/A,,Clear,0,2013-04-22 23:15:00
7:35 PM,60.8,35.6,39,30.21,10.0,SE,3.5,-,N/A,,Clear,130,2013-04-22 23:35:00
7:55 PM,59.0,33.8,39,30.21,10.0,Calm,Calm,-,N/A,,Clear,0,2013-04-22 23:55:00
8:15 PM,55.4,33.8,44,30.21,10.0,Calm,Calm,-,N/A,,Clear,0,2013-04-23 00:15:00
8:35 PM,55.4,33.8,44,30.21,10.0,Calm,Calm,-,N/A,,Clear,0,2013-04-23 00:35:00
8:55 PM,55.4,33.8,44,30.21,10.0,Calm,Calm,-,N/A,,Clear,0,2013-04-23 00:55:00
9:15 PM,55.4,33.8,44,30.22,10.0,Calm,Calm,-,N/A,,Clear,0,2013-04-23 01:15:00
9:35 PM,53.6,33.8,47,30.22,10.0,Calm,Calm,-,N/A,,Clear,0,2013-04-23 01:35:00
9:55 PM,53.6,32.0,44,30.21,10.0,Calm,Calm,-,N/A,,Clear,0,2013-04-23 01:55:00
10:15 PM,53.6,32.0,44,30.21,10.0,Calm,Calm,-,N/A,,Clear,0,2013-04-23 02:15:00
10:35 PM,53.6,32.0,44,30.22,10.0,Calm,Calm,-,N/A,,Clear,0,2013-04-23 02:35:00
10:55 PM,53.6,32.0,44,30.22,10.0,SE,3.5,-,N/A,,Clear,140,2013-04-23 02:55:00
11:15 PM,51.8,32.0,47,30.22,10.0,SSE,5.8,-,N/A,,Clear,150,2013-04-23 03:15:00
11:35 PM,51.8,32.0,47,30.22,10.0,SE,5.8,-,N/A,,Clear,140,2013-04-23 03:35:00
11:55 PM,51.8,32.0,47,30.22,10.0,SSE,6.9,-,N/A,,Clear,150,2013-04-23 03:55:00